This demonstration page uses our WeatherBlox Daily Observations layout. Learn more.

Left ArrowRight Arrow

Hourly Observations for December 23, 2015

Temp ( °F °C ) Dew Point ( °F °C ) Humidity (%) Winds ( mph kmh ) Pressure ( in mb ) Visibility ( mi km ) Precip ( " mm )
12:51 am 00:51 Cloudy 45 7.2 42 5.6 90 90 SE 3 6 29.68 1005 10 16 N/A
1:51 am 01:51 Cloudy with Light Rain 45 7.2 43 6.1 93 93 SSE 5 7 29.68 1005 10 16 N/A
2:51 am 02:51 Cloudy with Light Rain 44 6.7 42 5.6 93 93 N N/A 29.67 1005 10 16 N/A
3:51 am 03:51 Cloudy 45 7.2 43 6.1 93 93 E 6 9 29.67 1005 10 16 N/A
4:51 am 04:51 Cloudy with Light Rain 44 6.7 43 6.1 96 96 S 3 6 29.67 1005 6 10 0.02 0.51
5:24 am 05:24 Cloudy with Light Rain 45 7.2 43 6.1 93 93 N N/A 29.71 1006 9 14 0.02 0.51
5:51 am 05:51 Cloudy with Light Rain 45 7.2 44 6.7 97 97 N N/A 29.67 1005 10 16 0.02 0.51
6:51 am 06:51 Cloudy 45 7.2 44 6.7 97 97 N N/A 29.69 1005 10 16 0.01 0.25
7:04 am 07:04 Cloudy with Light Rain 45 7.2 44 6.7 97 97 NNE 6 9 29.74 1007 6 10 N/A
7:47 am 07:47 Cloudy with Light Rain 46 8 45 7 93 93 N N/A 29.74 1007 4 6 0.02 0.51
7:51 am 07:51 Cloudy with Light Rain 46 7.8 45 7.2 96 96 N N/A 29.70 1006 4 6 0.02 0.51
8:07 am 08:07 Cloudy 46 7.8 45 7.2 96 96 N N/A 29.74 1007 10 16 N/A
8:51 am 08:51 Cloudy with Light Rain 46 7.8 46 7.8 100 100 N N/A 29.71 1006 4 6 N/A
9:47 am 09:47 Cloudy 48 9 46 8 94 94 N N/A 29.74 1007 10 16 0.01 0.25
9:51 am 09:51 Cloudy 50 10 48 8.9 93 93 N N/A 29.72 1006 10 16 0.01 0.25
10:12 am 10:12 Cloudy 51 10.6 47 8.3 86 86 N N/A 29.74 1007 10 16 N/A
10:51 am 10:51 Cloudy with Light Rain 51 10.6 48 8.9 89 89 W 5 7 29.72 1006 8 13 N/A
11:51 am 11:51 Mostly Cloudy 54 12.2 47 8.3 77 77 NNW 6 9 29.67 1005 10 16 N/A
12:51 pm 12:51 Cloudy 57 13.9 47 8.3 69 69 W 8 13 29.63 1003 10 16 N/A
1:51 pm 13:51 Cloudy 57 13.9 48 8.9 72 72 WSW 10 17 29.63 1003 10 16 N/A
2:51 pm 14:51 Mostly Cloudy 60 15.6 46 7.8 60 60 WNW 15 24 29.60 1003 10 16 N/A
3:51 pm 15:51 Cloudy 58 14.4 44 6.7 60 60 WNW 15 24 29.61 1003 10 16 N/A
4:51 pm 16:51 Cloudy 56 13.3 44 6.7 65 65 NW 16 26 29.62 1003 10 16 N/A
5:51 pm 17:51 Cloudy 55 12.8 43 6.1 64 64 NW 15 24 29.64 1004 10 16 N/A
6:51 pm 18:51 Cloudy 55 12.8 43 6.1 64 64 NW 15 24 29.67 1005 10 16 N/A
7:51 pm 19:51 Mostly Cloudy 55 12.8 43 6.1 64 64 NNW 14 22 29.68 1005 10 16 N/A
8:51 pm 20:51 Cloudy 51 10.6 45 7.2 80 80 SSW 7 11 29.70 1006 10 16 N/A
9:51 pm 21:51 Cloudy with Light Rain 51 10.6 46 7.8 83 83 WSW 7 11 29.70 1006 10 16 N/A
10:51 pm 22:51 Cloudy 51 10.6 46 7.8 83 83 N N/A 29.73 1007 10 16 N/A
11:51 pm 23:51 Cloudy with Light Rain 50 10 48 8.9 93 93 N N/A 29.73 1007 10 16 N/A

Powered by AerisWeather